Conception — WYR8548 — position and weather

sailwx.info

Track history (hours):
 
Tides and Currents Weather Stations Pressure Air Temp Water Temp Dewpoint Dewpoint Depression Visibility Wind Speed Wind Dir Waves Ship Positions

Conception

Owner: TRUTH AQUATICS, SANTA BARBARA, CA. More information available from US FCC via Universal Licensing System and Coast Guard Vessel Documentation Center.

Last reported at 2018-Feb-19 10:43 UTC. Time now 2018-Feb-19 11:56 UTC.
Position N 34°24' W 119°41'.

Length 24 m.

Type: Diving. MMSI: 367098480.

Date/timePositionNaut miles runAvg speedWind from/ knotsBaromVisibWave heightAir tempDewpointWater temp
2018-Feb-19 10:43N 34°24' W 119°41'0 0.0
2018-Feb-19 09:01N 34°24' W 119°41'0 0.0
2018-Feb-19 04:07N 34°24' W 119°41'0 0.0
2018-Feb-19 03:49N 34°24' W 119°41'0 0.0
2018-Feb-19 01:22N 34°24' W 119°41'0 0.0
2018-Feb-18 23:55N 34°24' W 119°41'0 0.0
2018-Feb-18 17:55N 34°24' W 119°41'0 0.0
2018-Feb-18 16:01N 34°24' W 119°41'0 0.0
2018-Feb-18 13:55N 34°24' W 119°41'0 0.0
2018-Feb-18 10:49N 34°24' W 119°41'0 0.0
2018-Feb-18 10:19N 34°24' W 119°41'0 0.0
2018-Feb-18 09:55N 34°24' W 119°41'0 0.0
2018-Feb-18 03:55N 34°24' W 119°41'0 0.0
2018-Feb-18 01:55N 34°24' W 119°41'2 3.6
2018-Feb-18 01:21N 34°22' W 119°42'410.4
2018-Feb-18 00:59N 34°19' W 119°44'510.4
2018-Feb-18 00:27N 34°14' W 119°47'510.3
2018-Feb-17 23:57N 34°10' W 119°50'510.3
2018-Feb-17 23:27N 34°06' W 119°54'1 1.3
2018-Feb-17 22:29N 34°05' W 119°54'0 0.0
2018-Feb-17 21:26N 34°05' W 119°54'0 0.0
2018-Feb-17 20:59N 34°05' W 119°54'0 0.0
2018-Feb-17 20:26N 34°05' W 119°54'1 1.3
2018-Feb-17 19:57N 34°05' W 119°55'4 9.9
2018-Feb-17 19:30N 34°01' W 119°57'5 0.9
2018-Feb-17 14:16N 33°56' W 119°58'310.0
2018-Feb-17 14:00N 33°59' W 119°57'610.6
2018-Feb-17 13:27N 34°04' W 119°56'5 9.8
2018-Feb-17 12:59N 34°08' W 119°53'5 9.6
2018-Feb-17 12:30N 34°12' W 119°50'6 9.9
2018-Feb-17 11:56N 34°17' W 119°46'4 9.9
2018-Feb-17 11:30N 34°20' W 119°44'5 1.3
2018-Feb-17 07:59N 34°24' W 119°41'0 0.0
2018-Feb-17 07:26N 34°24' W 119°41'0 0.0
2018-Feb-17 04:32N 34°24' W 119°41'0 0.0
2018-Feb-16 16:47N 34°24' W 119°41'0 0.0
2018-Feb-16 15:17N 34°24' W 119°41'0 0.0
2018-Feb-16 12:41N 34°24' W 119°41'0 0.0
2018-Feb-16 12:20N 34°24' W 119°41'0 0.0
2018-Feb-16 03:47N 34°24' W 119°41'0 0.0
2018-Feb-15 22:41N 34°24' W 119°41'0 0.0
2018-Feb-15 22:17N 34°24' W 119°41'0 0.0
2018-Feb-15 19:44N 34°24' W 119°41'0 0.0
2018-Feb-15 18:53N 34°24' W 119°41'0 0.1
2018-Feb-15 18:11N 34°24' W 119°42'1 3.6
2018-Feb-15 18:00N 34°24' W 119°41'1 0.7
2018-Feb-15 17:03N 34°24' W 119°41'0 0.0
2018-Feb-15 16:57N 34°24' W 119°41'0 0.0
2018-Feb-15 09:11N 34°24' W 119°41'0 0.0
2018-Feb-15 07:14N 34°24' W 119°41'0 0.0
2018-Feb-15 04:23N 34°24' W 119°41'0 0.0
2018-Feb-15 02:56N 34°24' W 119°41'0 0.0
2018-Feb-14 15:56N 34°24' W 119°41'0 0.0
2018-Feb-14 12:05N 34°24' W 119°41'0 0.0
2018-Feb-14 11:41N 34°24' W 119°41'0 0.0
2018-Feb-14 11:29N 34°24' W 119°41'0 0.0
2018-Feb-14 09:47N 34°24' W 119°41'0 0.0
2018-Feb-14 00:14N 34°24' W 119°41'0 0.0
2018-Feb-13 23:47N 34°24' W 119°41'0 0.0
2018-Feb-13 23:29N 34°24' W 119°41'0 0.0
2018-Feb-13 22:35N 34°24' W 119°41'0 0.0
2018-Feb-13 22:17N 34°24' W 119°41'0 0.0
2018-Feb-13 15:14N 34°24' W 119°41'0 0.0
2018-Feb-13 14:59N 34°24' W 119°41'0 0.0
2018-Feb-13 11:59N 34°24' W 119°41'0 0.0
2018-Feb-13 10:35N 34°24' W 119°41'0 0.0
2018-Feb-13 10:26N 34°24' W 119°41'0 0.0
2018-Feb-13 05:29N 34°24' W 119°41'0 0.0
2018-Feb-13 03:08N 34°24' W 119°41'0 0.0
2018-Feb-13 02:41N 34°24' W 119°41'0 0.0
2018-Feb-13 00:47N 34°24' W 119°41'0 0.0
2018-Feb-12 20:17N 34°24' W 119°41'0 0.0
2018-Feb-12 19:44N 34°24' W 119°41'0 0.0
2018-Feb-12 19:20N 34°24' W 119°41'0 0.0
2018-Feb-12 14:05N 34°24' W 119°41'0 0.0
2018-Feb-12 03:59N 34°24' W 119°41'0 0.0
2018-Feb-12 00:22N 34°24' W 119°41'5 7.4
2018-Feb-11 23:44N 34°20' W 119°41'310.1
2018-Feb-11 23:29N 34°17' W 119°42'610.0
2018-Feb-11 22:53N 34°11' W 119°43'410.0
2018-Feb-11 22:29N 34°07' W 119°44'4 8.3
2018-Feb-11 21:58N 34°03' W 119°45'0 0.1
2018-Feb-11 21:24N 34°03' W 119°45'0 0.0
2018-Feb-11 16:59N 34°03' W 119°45'0 0.0
2018-Feb-11 16:18N 34°03' W 119°45'0 0.0
2018-Feb-11 15:59N 34°03' W 119°45'0 0.0
2018-Feb-11 15:29N 34°03' W 119°45'0 0.1
2018-Feb-11 14:58N 34°03' W 119°45'1 0.9
2018-Feb-11 13:46N 34°03' W 119°44'0 0.0
2018-Feb-11 13:25N 34°03' W 119°44'0 0.0
2018-Feb-11 12:55N 34°03' W 119°44'0 0.0
2018-Feb-11 12:25N 34°03' W 119°44'0 0.0
2018-Feb-11 11:49N 34°03' W 119°44'0 0.0
2018-Feb-11 11:10N 34°03' W 119°44'0 0.0
2018-Feb-11 10:49N 34°03' W 119°44'0 0.0
2018-Feb-11 10:07N 34°03' W 119°44'0 0.0
2018-Feb-11 09:58N 34°03' W 119°44'0 0.0
2018-Feb-11 09:19N 34°03' W 119°44'0 0.0
2018-Feb-11 08:58N 34°03' W 119°44'0 0.0
2018-Feb-11 08:28N 34°03' W 119°44'0 0.0
2018-Feb-11 07:19N 34°03' W 119°44'0 0.0
2018-Feb-11 04:49N 34°03' W 119°44'0 0.0
2018-Feb-11 04:19N 34°03' W 119°44'0 0.0
2018-Feb-11 03:19N 34°03' W 119°44'0 0.0
2018-Feb-11 02:58N 34°03' W 119°44'0 0.0
2018-Feb-11 02:07N 34°03' W 119°44'0 0.0
2018-Feb-11 01:43N 34°03' W 119°44'0 0.0
2018-Feb-11 01:25N 34°03' W 119°44'0 0.0
2018-Feb-11 00:58N 34°03' W 119°44'0 0.0
2018-Feb-11 00:25N 34°03' W 119°44'0 0.0
2018-Feb-10 23:46N 34°03' W 119°44'0 0.0
2018-Feb-10 23:16N 34°03' W 119°44'0 0.0
2018-Feb-10 22:49N 34°03' W 119°44'0 0.6
2018-Feb-10 22:30N 34°03' W 119°44'5 9.7
2018-Feb-10 21:58N 34°04' W 119°50'0 1.0
2018-Feb-10 21:30N 34°04' W 119°51'0 0.0
2018-Feb-10 20:50N 34°04' W 119°51'0 0.0
2018-Feb-10 20:23N 34°04' W 119°51'0 0.0
2018-Feb-10 19:23N 34°04' W 119°51'0 0.0
2018-Feb-10 18:56N 34°04' W 119°51'0 0.0
2018-Feb-10 17:26N 34°04' W 119°51'0 0.0
2018-Feb-10 15:59N 34°04' W 119°51'0 0.1
2018-Feb-10 15:23N 34°04' W 119°51'2 5.5
2018-Feb-10 15:00N 34°04' W 119°48'510.0
2018-Feb-10 14:30N 34°03' W 119°42'6 9.4
2018-Feb-10 13:49N 34°09' W 119°39'310.0
2018-Feb-10 13:28N 34°12' W 119°38'7 9.3
2018-Feb-10 12:44N 34°19' W 119°39'3 9.6
2018-Feb-10 12:24N 34°22' W 119°40'3 2.3
2018-Feb-10 11:04N 34°24' W 119°41'0 0.0
2018-Feb-10 10:55N 34°24' W 119°41'0 0.0
2018-Feb-10 09:28N 34°24' W 119°41'0 0.0
2018-Feb-10 02:42N 34°24' W 119°41'0 0.0
2018-Feb-10 02:18N 34°24' W 119°41'0 0.0
2018-Feb-09 23:00N 34°24' W 119°41'0 0.0
2018-Feb-09 22:45N 34°24' W 119°41'  
Track history (hours):
 
Tides and Currents Weather Stations Pressure Air Temp Water Temp Dewpoint Dewpoint Depression Visibility Wind Speed Wind Dir Waves Ship Positions

Conception

Owner: TRUTH AQUATICS, SANTA BARBARA, CA. More information available from US FCC via Universal Licensing System and Coast Guard Vessel Documentation Center.

Last reported at 2018-Feb-19 10:43 UTC. Time now 2018-Feb-19 11:56 UTC.
Position N 34°24' W 119°41'.

Length 24 m.

Type: Diving. MMSI: 367098480.

Date/timePositionNaut miles runAvg speedWind from/ knotsBaromVisibWave heightAir tempDewpointWater temp
2018-Feb-19 10:43N 34°24' W 119°41'0 0.0
2018-Feb-19 09:01N 34°24' W 119°41'0 0.0
2018-Feb-19 04:07N 34°24' W 119°41'0 0.0
2018-Feb-19 03:49N 34°24' W 119°41'0 0.0
2018-Feb-19 01:22N 34°24' W 119°41'0 0.0
2018-Feb-18 23:55N 34°24' W 119°41'0 0.0
2018-Feb-18 17:55N 34°24' W 119°41'0 0.0
2018-Feb-18 16:01N 34°24' W 119°41'0 0.0
2018-Feb-18 13:55N 34°24' W 119°41'0 0.0
2018-Feb-18 10:49N 34°24' W 119°41'0 0.0
2018-Feb-18 10:19N 34°24' W 119°41'0 0.0
2018-Feb-18 09:55N 34°24' W 119°41'0 0.0
2018-Feb-18 03:55N 34°24' W 119°41'0 0.0
2018-Feb-18 01:55N 34°24' W 119°41'2 3.6
2018-Feb-18 01:21N 34°22' W 119°42'410.4
2018-Feb-18 00:59N 34°19' W 119°44'510.4
2018-Feb-18 00:27N 34°14' W 119°47'510.3
2018-Feb-17 23:57N 34°10' W 119°50'510.3
2018-Feb-17 23:27N 34°06' W 119°54'1 1.3
2018-Feb-17 22:29N 34°05' W 119°54'0 0.0
2018-Feb-17 21:26N 34°05' W 119°54'0 0.0
2018-Feb-17 20:59N 34°05' W 119°54'0 0.0
2018-Feb-17 20:26N 34°05' W 119°54'1 1.3
2018-Feb-17 19:57N 34°05' W 119°55'4 9.9
2018-Feb-17 19:30N 34°01' W 119°57'5 0.9
2018-Feb-17 14:16N 33°56' W 119°58'310.0
2018-Feb-17 14:00N 33°59' W 119°57'610.6
2018-Feb-17 13:27N 34°04' W 119°56'5 9.8
2018-Feb-17 12:59N 34°08' W 119°53'5 9.6
2018-Feb-17 12:30N 34°12' W 119°50'6 9.9
2018-Feb-17 11:56N 34°17' W 119°46'4 9.9
2018-Feb-17 11:30N 34°20' W 119°44'5 1.3
2018-Feb-17 07:59N 34°24' W 119°41'0 0.0
2018-Feb-17 07:26N 34°24' W 119°41'0 0.0
2018-Feb-17 04:32N 34°24' W 119°41'0 0.0
2018-Feb-16 16:47N 34°24' W 119°41'0 0.0
2018-Feb-16 15:17N 34°24' W 119°41'0 0.0
2018-Feb-16 12:41N 34°24' W 119°41'0 0.0
2018-Feb-16 12:20N 34°24' W 119°41'0 0.0
2018-Feb-16 03:47N 34°24' W 119°41'0 0.0
2018-Feb-15 22:41N 34°24' W 119°41'0 0.0
2018-Feb-15 22:17N 34°24' W 119°41'0 0.0
2018-Feb-15 19:44N 34°24' W 119°41'0 0.0
2018-Feb-15 18:53N 34°24' W 119°41'0 0.1
2018-Feb-15 18:11N 34°24' W 119°42'1 3.6
2018-Feb-15 18:00N 34°24' W 119°41'1 0.7
2018-Feb-15 17:03N 34°24' W 119°41'0 0.0
2018-Feb-15 16:57N 34°24' W 119°41'0 0.0
2018-Feb-15 09:11N 34°24' W 119°41'0 0.0
2018-Feb-15 07:14N 34°24' W 119°41'0 0.0
2018-Feb-15 04:23N 34°24' W 119°41'0 0.0
2018-Feb-15 02:56N 34°24' W 119°41'0 0.0
2018-Feb-14 15:56N 34°24' W 119°41'0 0.0
2018-Feb-14 12:05N 34°24' W 119°41'0 0.0
2018-Feb-14 11:41N 34°24' W 119°41'0 0.0
2018-Feb-14 11:29N 34°24' W 119°41'0 0.0
2018-Feb-14 09:47N 34°24' W 119°41'0 0.0
2018-Feb-14 00:14N 34°24' W 119°41'0 0.0
2018-Feb-13 23:47N 34°24' W 119°41'0 0.0
2018-Feb-13 23:29N 34°24' W 119°41'0 0.0
2018-Feb-13 22:35N 34°24' W 119°41'0 0.0
2018-Feb-13 22:17N 34°24' W 119°41'0 0.0
2018-Feb-13 15:14N 34°24' W 119°41'0 0.0
2018-Feb-13 14:59N 34°24' W 119°41'0 0.0
2018-Feb-13 11:59N 34°24' W 119°41'0 0.0
2018-Feb-13 10:35N 34°24' W 119°41'0 0.0
2018-Feb-13 10:26N 34°24' W 119°41'0 0.0
2018-Feb-13 05:29N 34°24' W 119°41'0 0.0
2018-Feb-13 03:08N 34°24' W 119°41'0 0.0
2018-Feb-13 02:41N 34°24' W 119°41'0 0.0
2018-Feb-13 00:47N 34°24' W 119°41'0 0.0
2018-Feb-12 20:17N 34°24' W 119°41'0 0.0
2018-Feb-12 19:44N 34°24' W 119°41'0 0.0
2018-Feb-12 19:20N 34°24' W 119°41'0 0.0
2018-Feb-12 14:05N 34°24' W 119°41'0 0.0
2018-Feb-12 03:59N 34°24' W 119°41'0 0.0
2018-Feb-12 00:22N 34°24' W 119°41'5 7.4
2018-Feb-11 23:44N 34°20' W 119°41'310.1
2018-Feb-11 23:29N 34°17' W 119°42'610.0
2018-Feb-11 22:53N 34°11' W 119°43'410.0
2018-Feb-11 22:29N 34°07' W 119°44'4 8.3
2018-Feb-11 21:58N 34°03' W 119°45'0 0.1
2018-Feb-11 21:24N 34°03' W 119°45'0 0.0
2018-Feb-11 16:59N 34°03' W 119°45'0 0.0
2018-Feb-11 16:18N 34°03' W 119°45'0 0.0
2018-Feb-11 15:59N 34°03' W 119°45'0 0.0
2018-Feb-11 15:29N 34°03' W 119°45'0 0.1
2018-Feb-11 14:58N 34°03' W 119°45'1 0.9
2018-Feb-11 13:46N 34°03' W 119°44'0 0.0
2018-Feb-11 13:25N 34°03' W 119°44'0 0.0
2018-Feb-11 12:55N 34°03' W 119°44'0 0.0
2018-Feb-11 12:25N 34°03' W 119°44'0 0.0
2018-Feb-11 11:49N 34°03' W 119°44'0 0.0
2018-Feb-11 11:10N 34°03' W 119°44'0 0.0
2018-Feb-11 10:49N 34°03' W 119°44'0 0.0
2018-Feb-11 10:07N 34°03' W 119°44'0 0.0
2018-Feb-11 09:58N 34°03' W 119°44'0 0.0
2018-Feb-11 09:19N 34°03' W 119°44'0 0.0
2018-Feb-11 08:58N 34°03' W 119°44'0 0.0
2018-Feb-11 08:28N 34°03' W 119°44'0 0.0
2018-Feb-11 07:19N 34°03' W 119°44'0 0.0
2018-Feb-11 04:49N 34°03' W 119°44'0 0.0
2018-Feb-11 04:19N 34°03' W 119°44'0 0.0
2018-Feb-11 03:19N 34°03' W 119°44'0 0.0
2018-Feb-11 02:58N 34°03' W 119°44'0 0.0
2018-Feb-11 02:07N 34°03' W 119°44'0 0.0
2018-Feb-11 01:43N 34°03' W 119°44'0 0.0
2018-Feb-11 01:25N 34°03' W 119°44'0 0.0
2018-Feb-11 00:58N 34°03' W 119°44'0 0.0
2018-Feb-11 00:25N 34°03' W 119°44'0 0.0
2018-Feb-10 23:46N 34°03' W 119°44'0 0.0
2018-Feb-10 23:16N 34°03' W 119°44'0 0.0
2018-Feb-10 22:49N 34°03' W 119°44'0 0.6
2018-Feb-10 22:30N 34°03' W 119°44'5 9.7
2018-Feb-10 21:58N 34°04' W 119°50'0 1.0
2018-Feb-10 21:30N 34°04' W 119°51'0 0.0
2018-Feb-10 20:50N 34°04' W 119°51'0 0.0
2018-Feb-10 20:23N 34°04' W 119°51'0 0.0
2018-Feb-10 19:23N 34°04' W 119°51'0 0.0
2018-Feb-10 18:56N 34°04' W 119°51'0 0.0
2018-Feb-10 17:26N 34°04' W 119°51'0 0.0
2018-Feb-10 15:59N 34°04' W 119°51'0 0.1
2018-Feb-10 15:23N 34°04' W 119°51'2 5.5
2018-Feb-10 15:00N 34°04' W 119°48'510.0
2018-Feb-10 14:30N 34°03' W 119°42'6 9.4
2018-Feb-10 13:49N 34°09' W 119°39'310.0
2018-Feb-10 13:28N 34°12' W 119°38'7 9.3
2018-Feb-10 12:44N 34°19' W 119°39'3 9.6
2018-Feb-10 12:24N 34°22' W 119°40'3 2.3
2018-Feb-10 11:04N 34°24' W 119°41'0 0.0
2018-Feb-10 10:55N 34°24' W 119°41'0 0.0
2018-Feb-10 09:28N 34°24' W 119°41'0 0.0
2018-Feb-10 02:42N 34°24' W 119°41'0 0.0
2018-Feb-10 02:18N 34°24' W 119°41'0 0.0
2018-Feb-09 23:00N 34°24' W 119°41'0 0.0
2018-Feb-09 22:45N 34°24' W 119°41'  

Dump ship's entire track history